Total_Precipitation_Accumulation
0.27 0.29 0.30 0.30 0.28 0.27 0.31 0.37 0.42 0.52 0.63 0.86 1.19 1.62 1.84 1.97 1.99 2.01 1.90 1.70 1.48 1.49 1.65 1.61 1.60 1.60 1.57 1.53 1.48 1.60 1.53 1.26 1.17 1.32 1.27 1.14 0.98 0.93 0.92 0.93 1.02 1.12 1.10
0.21 0.18 0.18 0.19 0.17 0.16 0.18 0.28 0.34 0.43 0.57 0.85 1.17 1.52 1.88 1.97 2.00 2.01 1.97 1.84 1.71 1.72 1.76 1.95 2.05 2.02 2.11 2.08 1.90 2.03 2.02 1.67 1.42 1.59 1.85 1.59 1.39 1.01 0.91 0.94 0.98 1.09 1.21
0.17 0.17 0.14 0.13 0.13 0.13 0.13 0.19 0.25 0.39 0.67 1.01 1.33 1.53 1.82 1.95 2.02 1.98 1.99 2.01 1.97 1.87 1.89 2.00 2.17 2.19 2.25 2.32 2.39 2.33 2.40 2.18 1.80 1.70 1.94 1.77 1.64 1.44 1.02 0.95 1.06 1.18 1.28
0.19 0.18 0.17 0.12 0.10 0.10 0.12 0.15 0.21 0.41 0.74 1.09 1.35 1.59 1.94 2.05 2.03 2.07 2.06 2.08 2.10 2.06 2.13 2.15 2.25 2.27 2.29 2.38 2.48 2.44 2.54 2.59 2.21 1.95 1.73 1.55 1.52 1.60 1.36 1.13 1.10 1.27 1.33
0.19 0.17 0.15 0.13 0.12 0.12 0.14 0.20 0.34 0.53 0.79 0.99 1.24 1.60 1.86 1.99 2.14 2.09 2.07 2.08 2.15 2.17 2.20 2.27 2.42 2.40 2.37 2.35 2.56 2.62 2.69 2.61 2.52 2.36 2.18 2.02 1.76 1.40 1.46 1.46 1.31 1.25 1.19
0.20 0.19 0.18 0.17 0.17 0.20 0.25 0.34 0.50 0.65 0.85 1.02 1.22 1.41 1.68 1.83 1.97 2.08 2.02 2.03 2.10 2.20 2.10 2.02 2.16 2.22 2.25 2.24 2.41 2.58 2.71 2.69 2.71 2.61 2.31 2.22 2.08 1.70 1.63 1.50 1.40 1.42 1.25
0.27 0.31 0.32 0.35 0.41 0.45 0.48 0.57 0.66 0.77 0.88 0.97 1.07 1.14 1.31 1.48 1.54 1.72 1.81 1.94 1.96 2.02 2.05 1.95 1.95 1.98 1.93 1.97 2.08 2.14 2.22 2.36 2.51 2.41 2.19 2.14 1.97 1.92 1.91 1.80 1.58 1.41 1.21
0.45 0.54 0.62 0.70 0.76 0.76 0.74 0.81 0.87 0.85 0.83 0.88 0.94 0.97 1.04 1.13 1.22 1.27 1.32 1.51 1.68 1.72 1.80 1.80 1.75 1.79 1.83 1.84 1.91 1.92 1.92 1.95 2.02 2.02 2.09 2.13 1.99 1.91 1.83 1.82 1.96 1.73 1.49
0.74 0.84 0.92 0.93 0.93 0.91 0.86 0.87 0.89 0.87 0.84 0.85 0.84 0.80 0.80 0.87 0.98 1.01 1.09 1.16 1.26 1.28 1.34 1.44 1.51 1.61 1.66 1.72 1.85 1.91 1.90 1.86 1.83 1.93 1.98 1.92 1.90 1.88 1.77 1.73 1.81 1.88 1.74
1.09 1.22 1.29 1.19 1.10 1.10 1.14 1.02 0.93 0.86 0.83 0.83 0.82 0.76 0.73 0.78 0.82 0.83 0.90 0.89 0.91 0.94 1.00 1.11 1.28 1.50 1.62 1.66 1.73 1.78 1.86 1.89 1.85 1.92 2.01 2.01 2.02 2.04 1.96 1.82 1.78 1.72 1.74
1.47 1.56 1.57 1.45 1.24 1.11 1.10 1.04 0.93 0.82 0.72 0.71 0.76 0.76 0.71 0.73 0.78 0.77 0.73 0.67 0.70 0.78 0.89 0.95 1.09 1.24 1.43 1.61 1.76 1.77 1.76 1.80 1.78 1.72 1.80 1.90 2.01 2.12 2.14 2.10 1.97 1.83 1.79
1.34 1.37 1.32 1.30 1.18 1.09 1.00 0.96 0.85 0.71 0.65 0.70 0.73 0.75 0.67 0.62 0.65 0.66 0.68 0.59 0.56 0.62 0.71 0.84 1.05 1.16 1.25 1.30 1.38 1.46 1.49 1.51 1.56 1.55 1.52 1.60 1.72 1.86 2.00 2.07 2.01 2.01 1.91
1.00 1.09 1.14 1.05 1.00 0.93 0.88 0.95 0.95 0.83 0.81 0.85 0.90 0.83 0.70 0.66 0.65 0.61 0.64 0.59 0.56 0.61 0.66 0.80 0.95 1.01 1.06 1.10 1.12 1.22 1.30 1.31 1.29 1.34 1.31 1.33 1.43 1.57 1.69 1.77 1.85 1.97 2.00
0.80 0.85 0.92 0.88 0.89 0.83 0.81 0.89 0.94 0.95 1.02 1.10 1.06 0.90 0.77 0.70 0.64 0.60 0.56 0.57 0.59 0.62 0.69 0.84 0.94 0.95 0.91 1.00 1.03 1.08 1.12 1.09 1.04 1.07 1.08 1.13 1.17 1.24 1.36 1.50 1.71 1.90 2.01
0.57 0.56 0.55 0.57 0.63 0.63 0.61 0.65 0.72 0.83 0.98 1.05 0.94 0.80 0.68 0.58 0.53 0.56 0.53 0.54 0.61 0.64 0.71 0.76 0.87 0.92 0.90 0.93 0.99 0.98 0.93 0.92 0.91 0.87 0.78 0.80 0.86 0.87 0.95 1.01 1.29 1.54 1.76
0.33 0.31 0.28 0.28 0.33 0.33 0.35 0.39 0.47 0.62 0.85 0.93 0.81 0.64 0.56 0.53 0.49 0.48 0.45 0.44 0.47 0.53 0.58 0.64 0.80 0.91 0.82 0.93 0.92 0.85 0.78 0.75 0.79 0.76 0.69 0.67 0.71 0.62 0.59 0.63 0.85 1.14 1.34
0.24 0.24 0.22 0.20 0.20 0.20 0.23 0.31 0.37 0.50 0.60 0.63 0.58 0.47 0.41 0.40 0.39 0.38 0.38 0.41 0.43 0.47 0.52 0.56 0.73 0.83 0.91 0.85 0.70 0.74 0.74 0.74 0.77 0.79 0.80 0.73 0.69 0.76 0.67 0.62 0.69 0.77 0.89
0.21 0.21 0.21 0.20 0.21 0.22 0.23 0.33 0.37 0.39 0.45 0.52 0.51 0.44 0.39 0.36 0.36 0.34 0.36 0.44 0.45 0.44 0.49 0.55 0.59 0.67 0.80 0.74 0.59 0.63 0.63 0.74 0.81 0.84 0.93 0.94 0.87 0.84 0.92 0.87 0.88 0.85 0.78
0.13 0.13 0.13 0.12 0.12 0.12 0.11 0.13 0.17 0.22 0.27 0.30 0.35 0.34 0.29 0.31 0.34 0.34 0.39 0.43 0.44 0.48 0.50 0.55 0.58 0.64 0.68 0.64 0.57 0.60 0.67 0.79 0.82 0.79 0.90 0.94 0.88 0.92 0.97 1.10 1.16 1.09 0.94
0.03 0.03 0.03 0.03 0.03 0.03 0.03 0.04 0.05 0.06 0.09 0.10 0.14 0.19 0.19 0.23 0.29 0.38 0.44 0.42 0.41 0.47 0.48 0.47 0.47 0.52 0.55 0.60 0.50 0.61 0.73 0.78 0.80 0.81 0.87 1.01 0.93 0.90 0.88 0.97 1.11 1.09 0.97
0.01 0.01 0.01 0.01 0.01 0.01 0.01 0.02 0.02 0.02 0.02 0.02 0.04 0.07 0.11 0.17 0.26 0.33 0.32 0.33 0.36 0.40 0.41 0.44 0.44 0.45 0.52 0.63 0.64 0.69 0.72 0.76 0.83 0.92 0.97 0.95 1.02 0.86 0.83 0.84 0.85 0.94 0.92
0.00 0.00 0.00 0.00 0.00 0.00 0.00 0.00 0.00 0.00 0.00 0.01 0.01 0.02 0.04 0.07 0.12 0.20 0.23 0.26 0.30 0.32 0.32 0.33 0.34 0.38 0.49 0.57 0.59 0.61 0.66 0.74 0.76 0.81 0.82 0.78 0.86 0.72 0.64 0.59 0.66 0.73 0.78
0.00 0.00 0.00 0.00 0.00 0.00 0.00 0.00 0.00 0.00 0.00 0.00 0.00 0.00 0.01 0.02 0.06 0.12 0.17 0.21 0.27 0.30 0.28 0.26 0.29 0.33 0.37 0.45 0.48 0.48 0.48 0.51 0.55 0.53 0.62 0.62 0.61 0.56 0.50 0.54 0.59 0.62 0.64
0.00 0.00 0.00 0.00 0.00 0.00 0.00 0.00 0.00 0.00 0.00 0.00 0.00 0.00 0.01 0.01 0.03 0.06 0.13 0.21 0.24 0.23 0.24 0.26 0.28 0.32 0.35 0.35 0.37 0.41 0.41 0.40 0.45 0.44 0.46 0.46 0.45 0.47 0.48 0.50 0.55 0.61 0.66
0.00 0.00 0.00 0.00 0.00 0.00 0.00 0.00 0.00 0.00 0.00 0.00 0.00 0.00 0.01 0.02 0.02 0.02 0.06 0.13 0.16 0.15 0.18 0.24 0.28 0.33 0.36 0.32 0.28 0.29 0.36 0.42 0.47 0.53 0.47 0.43 0.44 0.47 0.53 0.55 0.54 0.58 0.63
0.00 0.00 0.00 0.00 0.00 0.00 0.00 0.00 0.00 0.00 0.00 0.00 0.00 0.01 0.01 0.02 0.02 0.02 0.04 0.06 0.06 0.08 0.09 0.11 0.15 0.15 0.14 0.15 0.15 0.18 0.23 0.30 0.37 0.52 0.58 0.60 0.65 0.67 0.66 0.64 0.55 0.51 0.53